Location: Unspecified
(17.6330°N, 0.0000°E)
Time: 20:46:30
(UTC+00:00)

Tiros 1 - Visible Passes

Search period start: 19 June 2019 00:00
Search period end: 29 June 2019 00:00
Orbit: 631 x 664 km, 48.4° (Epoch: 18 June)

Date Brightness Start Highest point End Pass type
(mag) Time Alt. Az. Time Alt. Az. Time Alt. Az.
23 Jun 9.0 19:09:11 10° SE 19:10:04 10° SE 19:10:57 10° ESE visible
23 Jun 8.7 20:47:11 10° SW 20:49:22 27° SW 20:49:22 27° SW visible
24 Jun 7.8 19:31:41 10° SSW 19:35:57 33° SE 19:40:12 10° ENE visible
24 Jun 9.3 21:14:14 10° W 21:18:05 24° NW 21:21:56 10° NNE visible
25 Jun 10.6 04:15:52 10° NNE 04:16:35 10° NE 04:17:17 10° NE visible
25 Jun 7.2 19:57:09 10° SW 20:01:56 79° NW 20:06:39 10° NE visible
26 Jun 9.5 04:39:05 10° NNW 04:43:00 27° NE 04:46:55 10° ESE visible
26 Jun 9.3 20:24:02 10° WSW 20:28:04 27° NW 20:32:05 10° NNE visible
27 Jun 7.2 19:07:08 10° SW 19:11:56 88° NW 19:16:41 10° NE visible
27 Jun 10.5 20:53:37 10° NW 20:54:30 10° NW 20:55:22 10° NNW visible
28 Jun 9.5 03:49:13 10° NNW 03:53:00 24° NE 03:56:46 10° E visible
28 Jun 9.3 19:33:53 10° WSW 19:38:03 30° NW 19:42:12 10° NNE visible
